QPF
0.00 0.00 0.00 0.00 0.00 0.00 0.00 0.00 0.00 0.01 0.01 0.01 0.00 0.00 0.00 0.00 0.00 0.02 0.02 0.02 0.04 0.02 0.00 0.00 0.00 0.00 0.00 0.00 0.00 0.00 0.00 0.00 0.00 0.00 0.00 0.00 0.00 0.00 0.00 0.00 0.00 0.00 0.00 0.00 0.00 0.00 0.00 0.00 0.00
0.00 0.00 0.00 0.00 0.00 0.00 0.00 0.00 0.00 0.01 0.01 0.01 0.01 0.00 0.00 0.00 0.00 0.00 0.01 0.02 0.03 0.01 0.00 0.00 0.00 0.00 0.00 0.00 0.00 0.00 0.00 0.00 0.00 0.00 0.00 0.00 0.00 0.00 0.00 0.00 0.00 0.00 0.00 0.00 0.00 0.00 0.00 0.00 0.00
0.00 0.00 0.00 0.00 0.00 0.00 0.00 0.00 0.00 0.00 0.00 0.01 0.01 0.01 0.00 0.00 0.01 0.01 0.02 0.04 0.04 0.01 0.00 0.00 0.00 0.00 0.00 0.00 0.00 0.00 0.00 0.00 0.00 0.00 0.00 0.00 0.00 0.00 0.00 0.00 0.00 0.00 0.00 0.00 0.00 0.00 0.00 0.00 0.00
0.00 0.00 0.00 0.00 0.00 0.00 0.00 0.00 0.00 0.00 0.01 0.01 0.01 0.01 0.01 0.01 0.01 0.02 0.04 0.05 0.04 0.01 0.01 0.00 0.00 0.00 0.00 0.00 0.00 0.00 0.00 0.00 0.00 0.00 0.00 0.00 0.00 0.00 0.00 0.00 0.00 0.00 0.00 0.00 0.00 0.00 0.00 0.00 0.00
0.00 0.00 0.00 0.00 0.00 0.00 0.00 0.00 0.00 0.00 0.01 0.01 0.01 0.01 0.01 0.00 0.02 0.04 0.05 0.07 0.07 0.03 0.01 0.01 0.00 0.00 0.00 0.00 0.00 0.00 0.00 0.00 0.00 0.00 0.00 0.00 0.00 0.00 0.00 0.00 0.00 0.00 0.00 0.00 0.00 0.00 0.00 0.00 0.00
0.00 0.00 0.00 0.00 0.00 0.00 0.00 0.00 0.00 0.00 0.00 0.00 0.01 0.01 0.02 0.01 0.03 0.06 0.10 0.19 0.17 0.09 0.03 0.02 0.01 0.01 0.00 0.00 0.00 0.00 0.00 0.00 0.00 0.00 0.00 0.00 0.00 0.00 0.00 0.00 0.00 0.00 0.00 0.00 0.00 0.00 0.00 0.00 0.00
0.00 0.00 0.00 0.00 0.00 0.00 0.00 0.00 0.00 0.00 0.00 0.00 0.00 0.01 0.02 0.03 0.03 0.08 0.17 0.21 0.21 0.15 0.08 0.03 0.03 0.02 0.01 0.01 0.01 0.01 0.01 0.01 0.01 0.01 0.01 0.01 0.01 0.01 0.00 0.00 0.00 0.00 0.00 0.00 0.00 0.00 0.00 0.00 0.00
0.00 0.00 0.00 0.00 0.00 0.00 0.00 0.00 0.00 0.00 0.00 0.00 0.00 0.00 0.04 0.06 0.06 0.07 0.18 0.20 0.20 0.22 0.14 0.08 0.04 0.02 0.02 0.02 0.02 0.01 0.01 0.01 0.01 0.01 0.01 0.01 0.01 0.01 0.00 0.00 0.00 0.00 0.00 0.00 0.00 0.00 0.00 0.00 0.00
0.00 0.00 0.00 0.00 0.00 0.00 0.00 0.00 0.00 0.00 0.00 0.00 0.00 0.00 0.01 0.03 0.05 0.06 0.15 0.23 0.22 0.26 0.25 0.16 0.09 0.06 0.05 0.04 0.03 0.03 0.03 0.02 0.02 0.01 0.01 0.01 0.01 0.01 0.01 0.01 0.01 0.01 0.01 0.01 0.01 0.01 0.00 0.00 0.01
0.00 0.00 0.00 0.00 0.00 0.00 0.00 0.00 0.00 0.00 0.00 0.00 0.00 0.01 0.01 0.02 0.04 0.05 0.18 0.32 0.30 0.33 0.33 0.32 0.19 0.12 0.10 0.07 0.06 0.05 0.04 0.03 0.02 0.02 0.01 0.01 0.01 0.01 0.01 0.02 0.02 0.02 0.02 0.01 0.01 0.01 0.01 0.01 0.01
0.00 0.00 0.00 0.00 0.00 0.00 0.00 0.00 0.00 0.00 0.00 0.01 0.01 0.01 0.02 0.02 0.06 0.07 0.12 0.19 0.30 0.54 0.49 0.42 0.31 0.21 0.17 0.15 0.12 0.08 0.05 0.03 0.03 0.03 0.03 0.03 0.03 0.03 0.03 0.03 0.04 0.04 0.03 0.02 0.02 0.02 0.01 0.01 0.02
0.00 0.00 0.00 0.00 0.00 0.00 0.00 0.00 0.00 0.00 0.00 0.01 0.01 0.01 0.02 0.04 0.06 0.08 0.13 0.17 0.26 0.41 0.44 0.40 0.38 0.32 0.29 0.25 0.24 0.16 0.11 0.08 0.07 0.09 0.07 0.07 0.06 0.06 0.06 0.08 0.09 0.09 0.08 0.07 0.06 0.04 0.03 0.03 0.04
0.00 0.00 0.00 0.00 0.00 0.00 0.00 0.00 0.00 0.00 0.01 0.01 0.01 0.01 0.02 0.04 0.07 0.08 0.11 0.18 0.25 0.30 0.33 0.33 0.39 0.42 0.41 0.34 0.34 0.30 0.22 0.18 0.15 0.13 0.11 0.11 0.12 0.13 0.12 0.15 0.17 0.17 0.15 0.11 0.10 0.09 0.08 0.08 0.09
0.00 0.00 0.00 0.00 0.00 0.00 0.00 0.00 0.00 0.00 0.00 0.00 0.00 0.01 0.02 0.03 0.06 0.11 0.16 0.25 0.19 0.21 0.31 0.33 0.35 0.47 0.51 0.47 0.44 0.34 0.24 0.20 0.19 0.17 0.16 0.19 0.21 0.21 0.19 0.21 0.25 0.27 0.26 0.25 0.21 0.16 0.18 0.15 0.13
0.00 0.00 0.00 0.00 0.00 0.00 0.00 0.00 0.00 0.00 0.00 0.00 0.00 0.00 0.01 0.02 0.05 0.10 0.15 0.24 0.18 0.22 0.34 0.41 0.43 0.44 0.49 0.49 0.43 0.37 0.29 0.29 0.30 0.26 0.22 0.23 0.24 0.22 0.18 0.20 0.28 0.32 0.37 0.42 0.45 0.33 0.27 0.26 0.21
0.00 0.00 0.00 0.00 0.00 0.00 0.00 0.00 0.01 0.01 0.00 0.00 0.00 0.01 0.00 0.01 0.02 0.05 0.10 0.14 0.12 0.18 0.33 0.40 0.44 0.45 0.42 0.42 0.40 0.37 0.37 0.36 0.45 0.40 0.34 0.30 0.25 0.23 0.20 0.20 0.22 0.25 0.32 0.43 0.50 0.39 0.32 0.30 0.26
0.00 0.00 0.00 0.00 0.00 0.00 0.00 0.00 0.01 0.01 0.00 0.01 0.01 0.01 0.01 0.01 0.03 0.03 0.06 0.12 0.12 0.14 0.20 0.23 0.26 0.37 0.44 0.47 0.46 0.47 0.41 0.38 0.36 0.40 0.42 0.31 0.24 0.23 0.22 0.20 0.20 0.21 0.24 0.33 0.38 0.35 0.27 0.27 0.27
0.00 0.00 0.00 0.00 0.00 0.00 0.01 0.01 0.01 0.02 0.02 0.03 0.03 0.02 0.02 0.02 0.02 0.03 0.04 0.05 0.07 0.09 0.14 0.17 0.19 0.26 0.37 0.34 0.32 0.36 0.39 0.42 0.39 0.34 0.35 0.30 0.26 0.26 0.24 0.21 0.25 0.30 0.32 0.27 0.31 0.31 0.27 0.23 0.23
0.00 0.00 0.00 0.00 0.00 0.01 0.03 0.02 0.02 0.02 0.04 0.05 0.06 0.06 0.05 0.03 0.03 0.03 0.03 0.04 0.06 0.07 0.10 0.16 0.22 0.33 0.41 0.39 0.28 0.23 0.29 0.39 0.43 0.36 0.32 0.31 0.30 0.31 0.28 0.25 0.25 0.25 0.24 0.22 0.22 0.26 0.27 0.23 0.18
0.00 0.00 0.00 0.00 0.00 0.00 0.03 0.07 0.06 0.04 0.04 0.04 0.07 0.06 0.04 0.05 0.05 0.05 0.03 0.04 0.06 0.08 0.09 0.10 0.13 0.20 0.21 0.22 0.21 0.22 0.27 0.33 0.41 0.41 0.36 0.32 0.30 0.29 0.30 0.30 0.27 0.23 0.22 0.23 0.21 0.21 0.23 0.21 0.16
0.00 0.00 0.00 0.00 0.00 0.00 0.02 0.06 0.06 0.07 0.05 0.04 0.06 0.06 0.04 0.06 0.06 0.06 0.03 0.03 0.04 0.06 0.08 0.07 0.07 0.09 0.12 0.15 0.18 0.21 0.25 0.28 0.28 0.29 0.29 0.29 0.27 0.24 0.23 0.22 0.21 0.20 0.19 0.19 0.21 0.21 0.20 0.20 0.18
0.00 0.00 0.00 0.00 0.00 0.00 0.01 0.04 0.06 0.08 0.12 0.09 0.07 0.06 0.07 0.10 0.10 0.09 0.05 0.05 0.04 0.04 0.05 0.07 0.09 0.10 0.13 0.15 0.15 0.17 0.20 0.23 0.22 0.21 0.23 0.23 0.18 0.16 0.14 0.13 0.16 0.14 0.16 0.16 0.16 0.17 0.18 0.19 0.20
0.00 0.00 0.00 0.00 0.00 0.00 0.01 0.02 0.04 0.08 0.12 0.09 0.07 0.07 0.08 0.10 0.08 0.07 0.06 0.07 0.05 0.04 0.05 0.07 0.09 0.10 0.11 0.14 0.15 0.16 0.18 0.20 0.19 0.17 0.16 0.17 0.17 0.15 0.14 0.14 0.18 0.17 0.15 0.14 0.14 0.13 0.13 0.15 0.16
0.00 0.00 0.00 0.00 0.01 0.01 0.01 0.02 0.04 0.08 0.11 0.12 0.12 0.11 0.12 0.12 0.11 0.10 0.10 0.12 0.08 0.06 0.08 0.12 0.14 0.11 0.11 0.14 0.13 0.13 0.14 0.13 0.13 0.12 0.12 0.13 0.15 0.15 0.15 0.18 0.21 0.22 0.19 0.16 0.13 0.13 0.12 0.11 0.11
0.00 0.00 0.00 0.00 0.01 0.02 0.03 0.05 0.07 0.12 0.13 0.13 0.12 0.12 0.13 0.10 0.10 0.10 0.09 0.10 0.11 0.11 0.08 0.09 0.12 0.13 0.12 0.10 0.10 0.10 0.11 0.10 0.09 0.10 0.10 0.12 0.14 0.15 0.15 0.19 0.20 0.20 0.18 0.15 0.13 0.13 0.13 0.10 0.09
0.00 0.00 0.00 0.01 0.02 0.03 0.07 0.07 0.11 0.18 0.22 0.16 0.11 0.09 0.08 0.08 0.06 0.11 0.07 0.05 0.06 0.08 0.08 0.08 0.08 0.11 0.13 0.10 0.07 0.06 0.07 0.08 0.08 0.08 0.09 0.10 0.11 0.15 0.19 0.21 0.23 0.19 0.18 0.19 0.19 0.16 0.13 0.11 0.11
0.00 0.00 0.01 0.01 0.01 0.03 0.07 0.09 0.17 0.30 0.29 0.19 0.13 0.10 0.09 0.09 0.07 0.06 0.04 0.03 0.04 0.04 0.05 0.07 0.08 0.09 0.09 0.09 0.09 0.08 0.07 0.06 0.06 0.06 0.06 0.06 0.07 0.09 0.11 0.14 0.18 0.19 0.18 0.16 0.14 0.11 0.09 0.09 0.09
0.00 0.00 0.01 0.02 0.03 0.05 0.07 0.14 0.14 0.17 0.17 0.15 0.12 0.08 0.06 0.06 0.05 0.03 0.02 0.02 0.02 0.02 0.02 0.05 0.07 0.07 0.06 0.07 0.08 0.12 0.08 0.05 0.03 0.03 0.03 0.04 0.05 0.06 0.06 0.06 0.08 0.09 0.09 0.09 0.08 0.08 0.07 0.07 0.07
0.01 0.01 0.01 0.02 0.03 0.04 0.07 0.09 0.08 0.10 0.12 0.11 0.07 0.05 0.04 0.04 0.03 0.03 0.02 0.02 0.01 0.01 0.02 0.03 0.04 0.06 0.06 0.06 0.06 0.05 0.05 0.04 0.02 0.02 0.02 0.02 0.03 0.04 0.05 0.05 0.06 0.06 0.07 0.08 0.08 0.08 0.08 0.07 0.06
0.01 0.01 0.02 0.03 0.03 0.03 0.05 0.09 0.10 0.12 0.12 0.12 0.07 0.05 0.04 0.04 0.03 0.02 0.01 0.01 0.01 0.02 0.02 0.02 0.02 0.03 0.04 0.05 0.06 0.06 0.05 0.05 0.04 0.03 0.03 0.03 0.03 0.03 0.03 0.04 0.05 0.05 0.04 0.05 0.05 0.06 0.05 0.04 0.04
MSLP
1010.57 1011.59 1012.84 1014.07 1015.03 1015.53 1015.46 1014.84 1013.80 1012.55 1011.34 1010.38 1009.79 1009.59 1009.72 1010.03 1010.35 1010.56 1010.58 1010.41 1010.12 1009.84 1009.68 1009.71 1009.95 1010.37 1010.88 1011.36 1011.76 1012.02 1012.15 1012.20 1012.26 1012.39 1012.64 1013.00 1013.46 1013.93 1014.37 1014.71 1014.94 1015.08 1015.18 1015.27 1015.40 1015.60 1015.85 1016.12 1016.38
1011.03 1012.22 1013.53 1014.69 1015.48 1015.71 1015.34 1014.41 1013.09 1011.64 1010.29 1009.25 1008.64 1008.45 1008.60 1008.94 1009.31 1009.57 1009.65 1009.58 1009.42 1009.28 1009.27 1009.44 1009.82 1010.33 1010.90 1011.42 1011.84 1012.10 1012.25 1012.33 1012.42 1012.58 1012.86 1013.24 1013.68 1014.13 1014.51 1014.80 1014.98 1015.08 1015.16 1015.25 1015.40 1015.62 1015.89 1016.19 1016.46
1011.68 1012.97 1014.26 1015.30 1015.85 1015.79 1015.10 1013.89 1012.34 1010.72 1009.28 1008.21 1007.60 1007.44 1007.62 1007.99 1008.39 1008.68 1008.83 1008.85 1008.81 1008.82 1008.96 1009.28 1009.77 1010.38 1011.00 1011.55 1011.98 1012.25 1012.41 1012.51 1012.62 1012.81 1013.10 1013.47 1013.89 1014.29 1014.62 1014.85 1014.99 1015.06 1015.12 1015.23 1015.40 1015.65 1015.95 1016.27 1016.55
1012.47 1013.79 1014.99 1015.83 1016.11 1015.76 1014.79 1013.33 1011.61 1009.89 1008.42 1007.36 1006.79 1006.67 1006.88 1007.27 1007.68 1008.01 1008.21 1008.31 1008.39 1008.53 1008.81 1009.26 1009.86 1010.53 1011.20 1011.77 1012.20 1012.47 1012.63 1012.73 1012.85 1013.05 1013.33 1013.69 1014.07 1014.43 1014.71 1014.89 1014.99 1015.05 1015.12 1015.25 1015.45 1015.73 1016.06 1016.40 1016.69
1013.29 1014.55 1015.60 1016.20 1016.22 1015.59 1014.39 1012.76 1010.95 1009.22 1007.78 1006.79 1006.28 1006.20 1006.43 1006.83 1007.25 1007.59 1007.83 1008.00 1008.17 1008.43 1008.83 1009.39 1010.07 1010.80 1011.49 1012.06 1012.47 1012.72 1012.87 1012.97 1013.09 1013.28 1013.55 1013.88 1014.23 1014.55 1014.78 1014.94 1015.02 1015.08 1015.17 1015.32 1015.56 1015.86 1016.21 1016.55 1016.85
1013.99 1015.13 1015.96 1016.32 1016.08 1015.24 1013.88 1012.18 1010.38 1008.71 1007.38 1006.49 1006.07 1006.04 1006.30 1006.69 1007.10 1007.43 1007.70 1007.92 1008.17 1008.52 1009.02 1009.65 1010.39 1011.14 1011.82 1012.37 1012.76 1012.99 1013.11 1013.20 1013.31 1013.50 1013.75 1014.06 1014.38 1014.66 1014.87 1015.00 1015.08 1015.15 1015.26 1015.43 1015.69 1016.02 1016.38 1016.71 1016.99
1014.43 1015.37 1015.97 1016.08 1015.64 1014.65 1013.23 1011.56 1009.86 1008.35 1007.18 1006.44 1006.12 1006.16 1006.43 1006.80 1007.18 1007.50 1007.77 1008.02 1008.33 1008.75 1009.30 1009.99 1010.75 1011.50 1012.16 1012.67 1013.02 1013.23 1013.33 1013.41 1013.51 1013.69 1013.93 1014.22 1014.51 1014.77 1014.95 1015.08 1015.16 1015.24 1015.37 1015.56 1015.83 1016.16 1016.50 1016.82 1017.07
1014.52 1015.23 1015.59 1015.48 1014.88 1013.83 1012.44 1010.89 1009.38 1008.08 1007.12 1006.56 1006.36 1006.46 1006.74 1007.09 1007.43 1007.72 1007.98 1008.24 1008.58 1009.04 1009.63 1010.33 1011.08 1011.81 1012.43 1012.91 1013.23 1013.41 1013.50 1013.58 1013.69 1013.86 1014.10 1014.37 1014.65 1014.88 1015.05 1015.16 1015.24 1015.34 1015.47 1015.67 1015.94 1016.25 1016.56 1016.84 1017.06
1014.25 1014.73 1014.86 1014.57 1013.87 1012.82 1011.54 1010.19 1008.91 1007.88 1007.16 1006.78 1006.71 1006.87 1007.16 1007.48 1007.78 1008.03 1008.27 1008.53 1008.88 1009.34 1009.93 1010.62 1011.34 1012.03 1012.62 1013.06 1013.35 1013.53 1013.63 1013.72 1013.85 1014.03 1014.27 1014.53 1014.79 1015.00 1015.15 1015.25 1015.33 1015.42 1015.55 1015.75 1015.99 1016.28 1016.55 1016.79 1016.97
1013.72 1013.98 1013.91 1013.49 1012.75 1011.76 1010.63 1009.51 1008.50 1007.74 1007.26 1007.06 1007.11 1007.33 1007.62 1007.91 1008.17 1008.39 1008.60 1008.84 1009.17 1009.62 1010.18 1010.83 1011.51 1012.15 1012.70 1013.11 1013.40 1013.59 1013.72 1013.85 1014.00 1014.20 1014.45 1014.70 1014.94 1015.12 1015.26 1015.34 1015.41 1015.49 1015.61 1015.79 1016.02 1016.27 1016.51 1016.70 1016.84
1013.10 1013.16 1012.92 1012.41 1011.67 1010.77 1009.82 1008.93 1008.19 1007.68 1007.41 1007.38 1007.53 1007.79 1008.08 1008.35 1008.58 1008.76 1008.94 1009.16 1009.46 1009.87 1010.38 1010.97 1011.59 1012.18 1012.69 1013.10 1013.40 1013.62 1013.79 1013.96 1014.16 1014.39 1014.64 1014.88 1015.09 1015.25 1015.36 1015.43 1015.48 1015.55 1015.66 1015.83 1016.03 1016.26 1016.47 1016.64 1016.75
1012.55 1012.45 1012.09 1011.53 1010.81 1010.01 1009.23 1008.55 1008.03 1007.73 1007.64 1007.73 1007.95 1008.24 1008.54 1008.79 1009.00 1009.16 1009.31 1009.49 1009.75 1010.10 1010.55 1011.06 1011.61 1012.15 1012.63 1013.03 1013.36 1013.62 1013.86 1014.08 1014.32 1014.57 1014.82 1015.05 1015.24 1015.37 1015.46 1015.50 1015.54 1015.61 1015.71 1015.87 1016.07 1016.29 1016.50 1016.67 1016.78
1012.23 1012.00 1011.56 1010.96 1010.28 1009.57 1008.93 1008.41 1008.07 1007.91 1007.94 1008.11 1008.38 1008.69 1008.99 1009.25 1009.44 1009.58 1009.71 1009.86 1010.06 1010.34 1010.70 1011.14 1011.61 1012.08 1012.53 1012.94 1013.30 1013.61 1013.91 1014.19 1014.46 1014.73 1014.98 1015.19 1015.35 1015.45 1015.51 1015.55 1015.58 1015.65 1015.76 1015.93 1016.15 1016.39 1016.62 1016.81 1016.96
1012.20 1011.88 1011.39 1010.78 1010.12 1009.49 1008.95 1008.54 1008.30 1008.23 1008.32 1008.53 1008.83 1009.15 1009.46 1009.72 1009.92 1010.07 1010.18 1010.29 1010.43 1010.63 1010.89 1011.22 1011.60 1012.01 1012.43 1012.84 1013.22 1013.59 1013.93 1014.25 1014.56 1014.83 1015.07 1015.25 1015.39 1015.47 1015.51 1015.53 1015.57 1015.65 1015.79 1015.99 1016.25 1016.53 1016.81 1017.06 1017.27
1012.40 1012.03 1011.50 1010.89 1010.27 1009.69 1009.21 1008.87 1008.67 1008.64 1008.75 1008.98 1009.28 1009.62 1009.94 1010.23 1010.45 1010.60 1010.71 1010.78 1010.86 1010.96 1011.12 1011.34 1011.62 1011.95 1012.33 1012.72 1013.12 1013.52 1013.90 1014.25 1014.57 1014.85 1015.07 1015.23 1015.33 1015.39 1015.41 1015.44 1015.50 1015.60 1015.78 1016.02 1016.32 1016.67 1017.02 1017.36 1017.66
1012.72 1012.31 1011.78 1011.19 1010.60 1010.07 1009.63 1009.31 1009.13 1009.10 1009.20 1009.42 1009.72 1010.08 1010.43 1010.76 1011.01 1011.19 1011.30 1011.34 1011.34 1011.35 1011.39 1011.49 1011.66 1011.91 1012.22 1012.59 1012.99 1013.40 1013.80 1014.17 1014.49 1014.76 1014.95 1015.09 1015.17 1015.21 1015.23 1015.27 1015.34 1015.47 1015.68 1015.97 1016.32 1016.73 1017.17 1017.61 1018.02
1012.98 1012.56 1012.05 1011.50 1010.97 1010.48 1010.08 1009.78 1009.60 1009.55 1009.63 1009.84 1010.14 1010.51 1010.91 1011.28 1011.59 1011.81 1011.92 1011.93 1011.87 1011.78 1011.70 1011.67 1011.72 1011.87 1012.11 1012.44 1012.82 1013.23 1013.63 1014.00 1014.32 1014.57 1014.75 1014.86 1014.93 1014.96 1014.99 1015.03 1015.12 1015.27 1015.50 1015.82 1016.21 1016.68 1017.20 1017.74 1018.27
1013.06 1012.66 1012.20 1011.73 1011.28 1010.87 1010.51 1010.23 1010.04 1009.97 1010.03 1010.22 1010.53 1010.92 1011.37 1011.80 1012.16 1012.42 1012.55 1012.54 1012.42 1012.23 1012.03 1011.88 1011.81 1011.85 1012.01 1012.28 1012.62 1013.01 1013.40 1013.77 1014.08 1014.32 1014.49 1014.60 1014.66 1014.70 1014.73 1014.78 1014.87 1015.02 1015.26 1015.58 1015.99 1016.49 1017.07 1017.68 1018.32
1012.87 1012.53 1012.18 1011.83 1011.50 1011.19 1010.91 1010.66 1010.48 1010.39 1010.42 1010.58 1010.89 1011.31 1011.79 1012.28 1012.71 1013.01 1013.16 1013.14 1012.97 1012.70 1012.40 1012.12 1011.93 1011.87 1011.94 1012.13 1012.43 1012.79 1013.16 1013.52 1013.82 1014.07 1014.24 1014.36 1014.43 1014.48 1014.52 1014.57 1014.65 1014.79 1015.00 1015.31 1015.70 1016.20 1016.79 1017.45 1018.16
1012.45 1012.23 1012.02 1011.85 1011.68 1011.51 1011.32 1011.12 1010.95 1010.84 1010.83 1010.96 1011.25 1011.67 1012.19 1012.73 1013.21 1013.56 1013.73 1013.71 1013.51 1013.18 1012.79 1012.41 1012.11 1011.95 1011.93 1012.05 1012.29 1012.61 1012.97 1013.32 1013.63 1013.88 1014.08 1014.22 1014.31 1014.38 1014.43 1014.48 1014.55 1014.66 1014.82 1015.07 1015.41 1015.86 1016.43 1017.10 1017.85
1011.91 1011.85 1011.86 1011.90 1011.94 1011.93 1011.85 1011.71 1011.54 1011.39 1011.33 1011.41 1011.65 1012.05 1012.57 1013.14 1013.66 1014.05 1014.26 1014.26 1014.05 1013.68 1013.23 1012.78 1012.39 1012.13 1012.03 1012.08 1012.27 1012.55 1012.88 1013.23 1013.55 1013.83 1014.05 1014.23 1014.35 1014.45 1014.51 1014.56 1014.61 1014.67 1014.78 1014.95 1015.22 1015.59 1016.10 1016.73 1017.46
1011.41 1011.57 1011.83 1012.12 1012.39 1012.55 1012.59 1012.49 1012.31 1012.10 1011.96 1011.95 1012.11 1012.46 1012.95 1013.52 1014.07 1014.50 1014.75 1014.78 1014.59 1014.22 1013.75 1013.24 1012.80 1012.47 1012.30 1012.28 1012.41 1012.66 1012.97 1013.30 1013.64 1013.94 1014.20 1014.41 1014.58 1014.71 1014.79 1014.84 1014.87 1014.89 1014.94 1015.03 1015.20 1015.48 1015.89 1016.44 1017.11
1011.11 1011.52 1012.05 1012.61 1013.09 1013.42 1013.55 1013.48 1013.26 1012.97 1012.72 1012.59 1012.65 1012.90 1013.34 1013.88 1014.44 1014.90 1015.20 1015.28 1015.14 1014.80 1014.34 1013.83 1013.36 1012.98 1012.76 1012.68 1012.76 1012.96 1013.24 1013.57 1013.91 1014.23 1014.52 1014.77 1014.97 1015.13 1015.23 1015.29 1015.31 1015.30 1015.29 1015.31 1015.40 1015.58 1015.89 1016.33 1016.91
1011.10 1011.77 1012.56 1013.35 1014.03 1014.50 1014.69 1014.63 1014.35 1013.95 1013.56 1013.29 1013.22 1013.37 1013.73 1014.23 1014.78 1015.28 1015.63 1015.78 1015.71 1015.44 1015.03 1014.55 1014.08 1013.68 1013.42 1013.30 1013.33 1013.48 1013.72 1014.02 1014.35 1014.67 1014.97 1015.24 1015.47 1015.65 1015.78 1015.85 1015.87 1015.85 1015.81 1015.79 1015.81 1015.91 1016.12 1016.45 1016.90
1011.40 1012.29 1013.29 1014.27 1015.10 1015.65 1015.87 1015.78 1015.43 1014.92 1014.40 1013.99 1013.79 1013.83 1014.10 1014.56 1015.11 1015.64 1016.05 1016.29 1016.31 1016.13 1015.80 1015.38 1014.94 1014.55 1014.27 1014.11 1014.09 1014.19 1014.38 1014.63 1014.92 1015.23 1015.52 1015.79 1016.03 1016.22 1016.37 1016.45 1016.48 1016.47 1016.43 1016.40 1016.39 1016.44 1016.57 1016.80 1017.13
1011.92 1012.96 1014.11 1015.20 1016.10 1016.68 1016.90 1016.77 1016.34 1015.75 1015.12 1014.60 1014.29 1014.24 1014.45 1014.88 1015.42 1015.99 1016.47 1016.79 1016.93 1016.86 1016.63 1016.29 1015.91 1015.56 1015.27 1015.09 1015.02 1015.05 1015.17 1015.37 1015.60 1015.86 1016.11 1016.36 1016.59 1016.78 1016.93 1017.03 1017.08 1017.10 1017.09 1017.07 1017.07 1017.10 1017.19 1017.35 1017.57
1012.53 1013.63 1014.82 1015.93 1016.83 1017.40 1017.59 1017.41 1016.94 1016.30 1015.62 1015.05 1014.68 1014.59 1014.76 1015.17 1015.73 1016.33 1016.88 1017.30 1017.55 1017.60 1017.49 1017.26 1016.95 1016.64 1016.37 1016.16 1016.04 1016.02 1016.07 1016.18 1016.34 1016.53 1016.73 1016.93 1017.12 1017.29 1017.44 1017.55 1017.63 1017.69 1017.72 1017.75 1017.78 1017.83 1017.91 1018.02 1018.18
1013.07 1014.13 1015.26 1016.30 1017.13 1017.64 1017.79 1017.59 1017.12 1016.49 1015.83 1015.28 1014.93 1014.85 1015.03 1015.46 1016.04 1016.68 1017.30 1017.81 1018.16 1018.33 1018.34 1018.21 1017.99 1017.73 1017.48 1017.27 1017.12 1017.03 1017.00 1017.03 1017.11 1017.21 1017.34 1017.48 1017.62 1017.76 1017.90 1018.01 1018.12 1018.21 1018.30 1018.38 1018.47 1018.56 1018.66 1018.77 1018.88
1013.41 1014.33 1015.30 1016.20 1016.90 1017.32 1017.43 1017.25 1016.84 1016.29 1015.74 1015.30 1015.04 1015.03 1015.28 1015.74 1016.36 1017.05 1017.72 1018.29 1018.73 1019.01 1019.12 1019.10 1018.96 1018.77 1018.55 1018.34 1018.16 1018.03 1017.94 1017.89 1017.88 1017.91 1017.97 1018.04 1018.13 1018.23 1018.34 1018.46 1018.57 1018.70 1018.83 1018.96 1019.11 1019.25 1019.39 1019.51 1019.62
1013.51 1014.21 1014.96 1015.65 1016.19 1016.52 1016.62 1016.49 1016.19 1015.80 1015.43 1015.16 1015.07 1015.19 1015.52 1016.05 1016.70 1017.42 1018.12 1018.75 1019.25 1019.60 1019.81 1019.87 1019.82 1019.69 1019.52 1019.32 1019.13 1018.96 1018.82 1018.72 1018.65 1018.61 1018.61 1018.63 1018.68 1018.74 1018.83 1018.93 1019.04 1019.18 1019.34 1019.51 1019.70 1019.89 1020.06 1020.22 1020.35
Thickness
5791 5793 5793 5781 5755 5735 5734 5759 5781 5791 5801 5817 5823 5818 5807 5798 5788 5783 5813 5819 5815 5808 5803 5800 5797 5794 5792 5790 5788 5787 5785 5784 5783 5782 5780 5779 5777 5776 5775 5773 5771 5769 5767 5765 5763 5761 5759 5757 5755
5788 5790 5781 5762 5735 5720 5734 5767 5780 5793 5809 5820 5822 5818 5809 5803 5812 5811 5813 5815 5813 5807 5802 5798 5795 5792 5789 5787 5785 5783 5782 5780 5779 5778 5777 5775 5774 5773 5772 5770 5768 5767 5765 5762 5760 5758 5756 5755 5753
5784 5784 5763 5744 5731 5726 5743 5774 5786 5803 5818 5819 5813 5816 5810 5804 5813 5814 5816 5816 5810 5805 5800 5796 5792 5789 5786 5784 5781 5779 5778 5776 5776 5775 5774 5772 5771 5770 5769 5767 5765 5764 5762 5760 5758 5756 5754 5753 5751
5774 5764 5752 5735 5733 5748 5762 5780 5788 5796 5808 5817 5812 5803 5809 5819 5821 5821 5819 5813 5806 5800 5797 5793 5788 5785 5783 5780 5778 5776 5774 5773 5772 5771 5770 5769 5767 5766 5765 5764 5762 5760 5759 5757 5755 5753 5752 5750 5749
5765 5747 5733 5725 5735 5757 5774 5787 5791 5791 5799 5808 5809 5796 5797 5816 5824 5821 5815 5810 5802 5796 5792 5788 5784 5781 5778 5776 5775 5773 5771 5770 5769 5768 5766 5765 5764 5763 5762 5760 5759 5757 5756 5754 5752 5751 5749 5748 5747
5744 5732 5717 5715 5734 5759 5776 5790 5794 5794 5798 5806 5804 5792 5792 5810 5813 5811 5810 5805 5799 5794 5788 5783 5779 5776 5774 5773 5771 5770 5768 5766 5765 5764 5762 5761 5760 5759 5758 5757 5755 5754 5753 5751 5749 5748 5747 5745 5744
5734 5723 5718 5726 5734 5750 5777 5793 5794 5794 5796 5802 5806 5788 5788 5800 5806 5806 5804 5799 5793 5789 5784 5779 5775 5772 5769 5768 5766 5765 5763 5761 5760 5759 5759 5758 5757 5756 5755 5753 5752 5751 5749 5748 5746 5745 5744 5743 5742
5742 5726 5724 5725 5733 5746 5774 5787 5796 5797 5797 5811 5808 5785 5781 5794 5801 5800 5795 5790 5784 5781 5778 5775 5771 5768 5765 5762 5760 5759 5758 5757 5755 5754 5754 5754 5753 5752 5751 5750 5749 5747 5746 5744 5743 5742 5741 5740 5739
5746 5718 5711 5723 5735 5748 5768 5774 5788 5801 5800 5801 5801 5797 5797 5799 5796 5789 5782 5778 5775 5773 5771 5769 5765 5763 5761 5759 5757 5754 5752 5752 5751 5750 5749 5749 5749 5748 5747 5746 5745 5743 5742 5741 5740 5739 5738 5737 5736
5732 5710 5721 5740 5750 5754 5763 5770 5779 5784 5781 5782 5786 5791 5793 5791 5785 5778 5772 5768 5767 5765 5764 5762 5761 5759 5757 5755 5754 5751 5748 5747 5746 5746 5745 5745 5745 5744 5743 5742 5741 5739 5738 5737 5736 5736 5734 5733 5733
5734 5726 5739 5751 5760 5761 5763 5769 5776 5772 5765 5772 5773 5776 5779 5777 5772 5769 5765 5765 5763 5761 5760 5757 5757 5755 5753 5751 5749 5748 5745 5744 5743 5742 5741 5740 5739 5739 5738 5737 5736 5735 5734 5733 5733 5732 5731 5730 5729
5735 5741 5749 5755 5765 5765 5765 5768 5766 5767 5766 5777 5779 5777 5773 5767 5763 5761 5758 5757 5757 5755 5757 5758 5757 5752 5749 5748 5746 5744 5742 5740 5739 5738 5737 5736 5735 5734 5734 5733 5732 5731 5730 5729 5728 5728 5727 5727 5726
5734 5742 5755 5761 5762 5765 5767 5764 5762 5762 5769 5775 5774 5769 5764 5760 5758 5757 5756 5753 5751 5749 5750 5750 5752 5748 5745 5744 5743 5740 5738 5737 5735 5734 5734 5733 5731 5730 5729 5729 5728 5728 5726 5725 5724 5723 5723 5723 5723
5740 5745 5752 5758 5760 5764 5759 5757 5757 5757 5765 5765 5762 5757 5755 5751 5750 5748 5746 5745 5744 5745 5745 5744 5745 5743 5739 5738 5739 5737 5735 5734 5732 5730 5729 5728 5727 5726 5725 5725 5724 5723 5723 5721 5721 5720 5719 5718 5718
5743 5739 5743 5752 5757 5759 5755 5742 5746 5755 5757 5752 5751 5750 5747 5744 5743 5741 5741 5740 5738 5738 5738 5736 5737 5736 5734 5732 5731 5731 5729 5728 5728 5726 5724 5723 5723 5722 5722 5721 5720 5720 5719 5718 5717 5716 5715 5714 5713
5732 5726 5720 5740 5752 5755 5741 5719 5740 5752 5748 5741 5741 5742 5740 5736 5735 5735 5736 5734 5732 5732 5730 5730 5732 5730 5729 5726 5723 5725 5725 5723 5722 5721 5720 5719 5718 5718 5718 5716 5716 5716 5715 5714 5712 5711 5709 5708 5707
5710 5704 5710 5726 5748 5747 5733 5718 5736 5746 5742 5733 5732 5733 5732 5728 5725 5725 5726 5725 5724 5724 5724 5723 5722 5720 5722 5722 5721 5718 5719 5718 5716 5715 5714 5714 5714 5714 5714 5712 5711 5711 5711 5710 5709 5706 5705 5703 5701
5694 5702 5709 5716 5738 5737 5724 5719 5729 5735 5733 5726 5724 5724 5722 5719 5716 5717 5717 5716 5716 5715 5716 5714 5713 5713 5713 5712 5710 5710 5711 5710 5709 5709 5709 5710 5710 5710 5709 5708 5707 5706 5705 5705 5703 5702 5701 5698 5696
5708 5706 5707 5721 5738 5728 5718 5715 5717 5722 5722 5718 5715 5713 5712 5709 5708 5708 5708 5707 5706 5705 5705 5705 5703 5704 5703 5703 5702 5703 5702 5702 5702 5703 5702 5704 5705 5704 5704 5704 5703 5702 5701 5701 5700 5698 5695 5692 5691
5710 5705 5708 5720 5734 5726 5711 5705 5710 5712 5710 5710 5708 5705 5703 5700 5698 5698 5697 5697 5696 5695 5694 5696 5695 5696 5697 5697 5699 5698 5695 5693 5693 5693 5695 5696 5696 5697 5697 5697 5698 5698 5697 5696 5695 5694 5690 5686 5686
5713 5711 5712 5713 5720 5718 5708 5690 5692 5698 5702 5701 5697 5695 5693 5691 5687 5686 5685 5685 5685 5684 5684 5687 5688 5688 5689 5691 5691 5690 5688 5683 5683 5683 5685 5685 5687 5688 5689 5691 5692 5693 5692 5691 5691 5691 5688 5683 5681
5705 5723 5722 5716 5701 5687 5693 5666 5676 5682 5682 5683 5682 5682 5681 5680 5679 5676 5674 5672 5672 5673 5675 5676 5677 5678 5679 5681 5682 5682 5680 5676 5675 5674 5675 5676 5677 5678 5680 5683 5684 5685 5685 5684 5684 5685 5684 5681 5676
5717 5727 5720 5713 5697 5680 5678 5666 5664 5673 5669 5670 5671 5671 5671 5670 5668 5666 5664 5662 5662 5663 5664 5665 5665 5666 5667 5669 5670 5672 5671 5669 5667 5666 5667 5667 5667 5668 5670 5673 5674 5675 5676 5675 5676 5676 5676 5674 5671
5727 5715 5704 5690 5677 5661 5668 5660 5654 5661 5665 5665 5665 5663 5661 5660 5659 5657 5655 5653 5652 5653 5654 5655 5655 5655 5656 5656 5658 5659 5659 5659 5658 5657 5656 5656 5656 5658 5660 5662 5664 5665 5666 5666 5666 5667 5667 5665 5664
5714 5684 5662 5658 5647 5650 5664 5655 5650 5662 5667 5664 5659 5655 5652 5650 5648 5646 5645 5643 5640 5640 5642 5643 5643 5644 5644 5645 5645 5646 5647 5647 5646 5645 5644 5645 5646 5647 5649 5652 5653 5654 5654 5655 5656 5656 5655 5654 5653
5704 5686 5656 5646 5641 5644 5655 5646 5648 5659 5661 5657 5651 5648 5643 5639 5638 5635 5634 5632 5630 5629 5630 5631 5631 5632 5632 5632 5633 5633 5635 5634 5633 5633 5632 5634 5635 5636 5638 5639 5641 5642 5643 5644 5644 5643 5642 5642 5642
5698 5686 5681 5657 5651 5640 5640 5644 5646 5652 5650 5645 5641 5637 5633 5630 5627 5624 5622 5621 5619 5618 5618 5620 5620 5619 5619 5619 5619 5620 5620 5621 5620 5620 5621 5622 5623 5625 5626 5627 5628 5629 5631 5632 5632 5631 5629 5629 5629
5702 5691 5669 5654 5639 5632 5637 5639 5637 5641 5641 5638 5634 5629 5625 5621 5617 5615 5611 5609 5607 5606 5607 5607 5607 5607 5607 5607 5607 5608 5607 5608 5608 5608 5609 5610 5611 5612 5614 5615 5615 5616 5617 5619 5619 5618 5617 5617 5616
5688 5682 5668 5652 5645 5631 5624 5632 5653 5647 5643 5636 5629 5623 5619 5614 5609 5605 5601 5598 5596 5596 5595 5595 5595 5594 5594 5594 5595 5596 5595 5595 5596 5596 5596 5597 5598 5599 5600 5601 5603 5603 5604 5605 5606 5605 5605 5604 5603
5689 5681 5666 5649 5644 5639 5629 5632 5654 5650 5642 5634 5626 5619 5614 5608 5603 5598 5594 5590 5587 5585 5585 5583 5583 5583 5582 5582 5582 5583 5583 5583 5583 5583 5584 5585 5586 5586 5587 5588 5589 5590 5590 5591 5592 5592 5592 5591 5590